Home > Weather > Fürth > Past weeks

Flag for Germany Past Weather in Fürth, Bavaria, Germany — Yesterday and Last 2 Weeks

Now
68 °F

Partly sunny.


Feels Like: 68 °F
Forecast: 55 / 71 °F
Wind: 6 mph from Southwest

Location: Nuernberg

Current Time: Jun 29, 2016 at 9:34:06 AM

Latest Report: Jun 29, 2016 at 8:50 AM


Visibility: N/A

Pressure: 29.98 "Hg

Humidity: 73%

Dew Point: 59 °F

Location of FürthLocation

Past Weather in Fürth — Graph

°F

Fürth Temperature Yesterday

Maximum temperature yesterday: 75 °F (at 3:20 PM)
Minimum temperature yesterday: 57 °F (at 5:50 AM)
Average temperature yesterday: 66 °F

High & Low Weather Summary for the Past Weeks

 TemperatureHumidityPressure
High91 °F (Jun 24, 3:20 PM)100% (Jun 16, 3:20 AM)30.27 "Hg (Jun 16, 3:20 AM)
Low46 °F (Jun 20, 5:20 AM)28% (Jun 24, 4:50 PM)29.53 "Hg (Jun 14, 4:20 PM)
Average65 °F73%30.00 "Hg
* Reported Jun 14 8:20 AM — Jun 29 8:20 AM, Fürth, Weather by CustomWeather, © 2016

Note: Actual official high and low records may vary slightly from our data, if they occured in-between our weather recording intervals... More about our weather records

Advertising

Fürth Weather History for the Previous 24 Hours

Scroll right to see more
 ConditionsComfort  
Time TempWeatherWind HumidityBarometerVisibility
8:20 AM
Wed, Jun 29
66 °FBroken clouds.2 mph78%29.98 "HgN/A
7:50 AM64 °FPartly sunny.2 mph83%29.98 "HgN/A
7:20 AM64 °FBroken clouds.5 mph83%29.98 "HgN/A
6:50 AM63 °FBroken clouds.5 mph94%29.98 "HgN/A
6:20 AM63 °FPartly sunny.No wind94%29.98 "HgN/A
5:50 AM61 °FPassing clouds.1 mph100%29.98 "HgN/A
5:20 AM61 °FPartly cloudy.2 mph94%29.95 "HgN/A
4:50 AM61 °FClear.3 mph94%29.98 "Hg10 mi
4:20 AM63 °FClear.1 mph88%29.95 "Hg10 mi
3:50 AM63 °FClear.2 mph88%29.95 "Hg10 mi
3:20 AM63 °FPartly cloudy.3 mph88%29.95 "HgN/A
2:50 AM63 °FPassing clouds.3 mph94%29.98 "HgN/A
2:20 AM64 °FPassing clouds.6 mph88%29.95 "HgN/A
1:50 AM63 °FScattered showers. Passing clouds.1 mph94%29.95 "HgN/A
1:20 AM63 °FClear.1 mph94%29.95 "Hg10 mi
12:50 AM63 °FClear.2 mph94%29.98 "Hg10 mi
12:20 AM63 °FPartly cloudy.1 mph88%29.98 "HgN/A
11:50 PM
Tue, Jun 28
64 °FPartly cloudy.No wind88%29.98 "HgN/A
11:20 PM64 °FPartly cloudy.No wind83%29.98 "HgN/A
10:50 PM64 °FClear.2 mph83%29.98 "Hg10 mi
10:20 PM64 °FSunny.2 mph83%29.98 "Hg10 mi
9:50 PM66 °FSunny.2 mph78%30.01 "Hg10 mi
9:20 PM66 °FSunny.1 mph78%30.01 "Hg10 mi
8:50 PM68 °FSunny.2 mph73%30.01 "Hg10 mi
8:20 PM68 °FPartly sunny.2 mph73%30.01 "HgN/A
7:50 PM70 °FPartly sunny.2 mph69%30.01 "HgN/A
7:20 PM70 °FScattered clouds.3 mph64%30.01 "HgN/A
6:50 PM70 °FScattered clouds.5 mph69%30.01 "HgN/A
6:20 PM70 °FPartly sunny.8 mph69%30.04 "HgN/A
5:50 PM70 °FPartly sunny.5 mph69%30.04 "HgN/A
5:20 PM72 °FBroken clouds.8 mph65%30.04 "HgN/A
4:50 PM72 °FBroken clouds.5 mph57%30.04 "HgN/A
4:20 PM73 °FScattered showers. Broken clouds.2 mph53%30.04 "HgN/A
3:50 PM73 °FPassing clouds.6 mph50%30.04 "HgN/A
3:20 PM75 °FPassing clouds.7 mph50%30.04 "HgN/A
2:50 PM72 °FPassing clouds.8 mph53%30.07 "HgN/A
2:20 PM72 °FPassing clouds.9 mph57%30.07 "HgN/A
1:50 PM72 °FPassing clouds.7 mph53%30.07 "HgN/A
1:20 PM73 °FBroken clouds.8 mph53%30.07 "HgN/A
12:50 PM72 °FBroken clouds.7 mph53%30.07 "HgN/A
12:20 PM72 °FPartly sunny.5 mph57%30.09 "HgN/A
11:50 AM68 °FPartly sunny.7 mph64%30.09 "HgN/A
11:20 AM70 °FScattered clouds.5 mph60%30.09 "HgN/A
10:50 AM66 °FPartly sunny.6 mph68%30.09 "HgN/A
10:20 AM68 °FBroken clouds.6 mph69%30.09 "HgN/A
9:50 AM68 °FScattered clouds.8 mph69%30.09 "HgN/A
9:20 AM66 °FMild.8 mph73%30.09 "HgN/A
Weather by CustomWeather, © 2016

See weather overviewHow to use our weather pages